#timestamp,LO_Frequency,Hit,StdDev 
1594162815.4,286047002.2,N
1594162835.2,286047000.3,N
1594162855.1,286047000.0,N
1594162856.0,286047000.0,N
1594162875.8,286047001.2,N
1594162895.7,286046998.5,N
1594162915.5,286047004.4,Y
1594162935.3,286047004.0,P
1594162955.2,286047001.5,N
1594162975.0,286047001.3,N
1594162975.9,286047001.3,N
1594162995.8,286047004.4,Y
1594163015.6,286047002.7,P
1594163035.4,286047000.6,N
1594163055.3,286046998.7,N
1594163075.1,286046999.4,N
1594163095.8,286046998.3,N
1594163115.7,286047001.0,N
1594163135.5,286046999.0,N
1594163155.4,286046999.5,N
1594163175.2,286046999.3,N
1594163195.0,286046999.3,N
1594163195.9,286046999.3,N
1594163215.8,286046999.3,N
1594163235.6,286046998.9,N
1594163255.5,286046999.4,N
1594163275.3,286047001.1,N
1594163295.1,286047000.8,N
1594163315.9,286047000.7,N
1594163335.7,286047001.1,N
1594163355.5,286046998.1,N
1594163375.4,286047000.7,N
1594163395.2,286046998.1,N
1594163415.1,286046998.1,N
1594163416.0,286046998.1,N
1594163435.8,286047001.1,N
1594163455.6,286046998.3,N
1594163475.5,286046998.1,N
1594163495.3,286047000.6,N
1594163515.2,286046999.9,N
1594163535.9,286046998.8,N
1594163555.7,286046998.2,N
1594163575.6,286046998.5,N
1594163595.4,286046998.4,N
1594163615.2,286047000.5,N
1594163635.1,286047002.8,N
1594163636.0,286047002.8,N
1594163655.8,286047001.0,N
1594163675.7,286046998.4,N
1594163695.5,286046999.0,N
1594163715.4,286047001.0,N
1594163735.2,286047000.0,N
1594163755.0,286047000.4,N
1594163755.9,286047000.4,N
1594163775.8,286047003.7,N
1594163795.6,286047004.4,N
1594163815.5,286047000.8,N
1594163835.3,286047002.4,N
1594163855.1,286047000.9,N
1594163875.9,286047001.0,N
1594163895.7,286047000.0,N
1594163915.5,286047000.4,N
1594163935.4,286047002.2,N
1594163955.2,286047002.3,N
1594163975.1,286047001.6,N
1594163976.0,286047001.6,N
1594163995.8,286046999.8,N
1594164015.6,286047000.5,N
1594164035.5,286047002.8,N
1594164055.3,286047001.9,N
1594164075.2,286047003.9,N
1594164095.9,286047002.2,N
1594164115.7,286047000.2,N
1594164135.6,286046999.7,N
1594164155.4,286047001.1,N
1594164175.2,286047002.8,N
1594164195.1,286047000.3,N
1594164196.0,286047000.3,N
1594164215.8,286047000.8,N
1594164235.7,286047002.0,N
1594164255.5,286047003.9,Y
1594164275.3,286047003.3,P
1594164295.2,286047002.9,N
1594164315.0,286047002.5,N
1594164315.9,286047002.5,Y
1594164335.8,286046998.6,P
1594164355.6,286046998.9,N
1594164375.4,286046997.7,N
1594164395.3,286046997.6,N
1594164415.1,286046997.8,N
1594164435.9,286046997.2,N
1594164455.7,286046999.4,N
1594164475.5,286046999.4,N
1594164495.4,286046997.3,N
1594164515.2,286046997.9,N
1594164535.1,286046997.7,N
1594164536.0,286046997.7,N
1594164555.8,286046995.4,Y
1594164575.6,286046996.9,P
1594164595.5,286046997.4,P
1594164645.3,286046997.5,E
1594164655.3,286046996.6,N
1594164675.1,286046999.1,P
1594164695.8,286046996.5,N
1594164715.7,286046998.3,N
1594164735.5,286047000.9,N
1594164755.4,286046998.6,N
1594164775.2,286046999.3,N
1594164795.0,286046998.6,N
1594164795.9,286046998.6,N
1594164815.8,286047003.2,N
1594164835.6,286047000.2,N
1594164855.4,286047002.3,N
1594164875.3,286047003.2,N
1594164895.1,286047005.5,N
1594164915.9,286047003.5,N
1594164935.7,286047005.0,N
1594164955.6,286047004.7,N
1594164975.4,286047003.2,N
1594164995.2,286047007.0,N
1594165015.1,286047004.8,N
1594165016.0,286047004.8,N
1594165035.8,286047005.1,N
1594165055.6,286047006.4,N
1594165075.5,286047005.0,N
1594165095.3,286047006.7,N
1594165115.2,286047007.1,N
1594165135.0,286047006.4,N
1594165135.9,286047006.4,N
1594165155.7,286047006.6,N
1594165175.6,286047006.0,N
1594165195.4,286047007.1,N
1594165215.3,286047007.1,N
1594165235.1,286047003.3,N
1594165255.8,286047004.2,N
1594165275.7,286047004.4,N
1594165295.5,286047001.7,N
1594165315.4,286047002.6,N
1594165335.2,286047001.8,N
1594165355.0,286046999.9,N
1594165355.9,286046999.9,N
1594165375.8,286047004.3,N
1594165395.6,286047000.1,N
1594165415.5,286047000.4,N
1594165435.3,286046999.7,N
1594165455.1,286047000.3,N
1594165475.9,286047002.4,N
1594165495.7,286047000.0,N
1594165515.5,286047002.6,N
1594165535.4,286047000.8,N
1594165555.2,286047001.2,N
1594165575.1,286047000.7,N
1594165576.0,286047000.7,N
1594165595.8,286047002.7,N
1594165615.6,286047003.6,N
1594165635.5,286047005.8,N
1594165655.3,286047003.0,N
1594165675.2,286047001.9,N
1594165695.9,286047001.9,N
1594165715.7,286047006.0,N
1594165735.6,286047011.9,Y
1594165755.4,286047000.9,P
1594165775.3,286047001.9,N
1594165795.1,286047002.8,P
1594165796.0,286047002.8,Y
1594165815.8,286047002.4,P
1594165835.7,286047002.7,P
1594165855.5,286046999.8,N
1594165875.4,286047001.0,N
1594165895.2,286046998.5,N
1594165915.0,286046999.9,N
1594165915.9,286046999.9,N
1594165935.8,286047001.5,N
1594165955.6,286047000.4,N
1594165975.4,286046998.5,N
1594165995.3,286047001.1,N
1594166015.1,286046998.3,N
1594166035.9,286047002.3,N
1594166055.7,286047003.3,N
1594166075.1,286047005.8,Y
1594166095.9,286047002.3,P
1594166115.7,286046998.2,N
1594166135.6,286047001.1,N
1594166155.4,286047001.2,N
1594166175.2,286046998.3,N
1594166195.1,286046999.0,N
1594166196.0,286046999.0,N
1594166215.8,286046997.0,N
1594166235.7,286046994.9,Y
1594166255.5,286046995.1,P
1594166275.3,286046996.9,N
1594166295.2,286046999.5,N
1594166315.0,286046996.7,N
1594166315.9,286046996.7,N
1594166335.8,286046995.3,N
1594166355.6,286046995.7,N
1594166375.4,286046995.4,N
1594166395.3,286046995.1,Y
